Regional Weather Roundup
Issued by NWS

Home | Current Version | Previous Version | Graphics & Text | Print | Product List | Glossary On
Versions: 1 2 3 4 5 6 7 8 9 10 11 12 13 14 15 16 17 18 19 20 21 22 23 24 25 26 27 28 29 30 31 32 33 34 35 36 37 38 39 40 41 42 43 44 45 46 47 48 49 50
000
ASUS43 KDTX 020010
RWRMI
MICHIGAN HOURLY REGIONAL WEATHER ROUNDUP
NATIONAL WEATHER SERVICE DETROIT/PONTIAC MI
800 PM EDT WED JUL 01 2015

NOTE: "FAIR" INDICATES FEW OR NO CLOUDS BELOW 12,000 FEET WITH NO
SIGNIFICANT WEATHER AND/OR OBSTRUCTION TO VISIBILITY.

MIZ047>049-052>055-059>063-066>070-074>076-081>083-020100-
SOUTHEAST LOWER MICHIGAN

CITY           SKY/WX    TMP DP  RH WIND       PRES   REMARKS
ADRIAN         PTSUNNY   70  56  61 N5        29.92R
6HR MIN TEMP:  69; 6HR MAX TEMP:  73;

ALMA           CLOUDY    66  55  66 N3        29.93S
ANN ARBOR      PTSUNNY   68  55  63 N5        29.91S
BAD AXE        CLOUDY    62  57  81 NE7       29.93R
CARO           CLOUDY    66  56  71 W3        29.92S
DETROIT CITY   PTSUNNY   69  55  60 N7        29.91R
6HR MIN TEMP:  69; 6HR MAX TEMP:  72;

DETROIT        PTSUNNY   70  55  59 NW6       29.91S
6HR MIN TEMP:  69; 6HR MAX TEMP:  74;

FLINT          CLOUDY    66  55  67 CALM      29.93S
6HR MIN TEMP:  65; 6HR MAX TEMP:  68;

GROSSE ILE     MOSUNNY   70  57  64 W5        29.90R
HILLSDALE      PTSUNNY   67  53  58 NW6       29.93R
6HR MIN TEMP:  67; 6HR MAX TEMP:  73;

HOWELL         PTSUNNY   64  56  78 CALM      29.93R
6HR MIN TEMP:  62; 6HR MAX TEMP:  69;


CITY           SKY/WX    TMP DP  RH WIND       PRES   REMARKS
JACKSON        PTSUNNY   65  53  65 N6        29.93R
6HR MIN TEMP:  65; 6HR MAX TEMP:  71;

LAMBERTVILLE   PTSUNNY   72  57  60 CALM      29.91R
6HR MIN TEMP:  72; 6HR MAX TEMP:  76;

LANSING        CLOUDY    66  52  60 CALM      29.93S
6HR MIN TEMP:  63; 6HR MAX TEMP:  70;

LAPEER         PTSUNNY   63  55  76 W3        29.93S
MASON          CLOUDY    63  52  67 CALM      29.93S
MONROE         PTSUNNY   67  58  70 N3        29.90R
6HR MIN TEMP:  67; 6HR MAX TEMP:  74;

MT. CLEMENS    PTSUNNY   66  59  77 N8        29.90S HAZE
6HR MIN TEMP:  66; 6HR MAX TEMP:  71;

PONTIAC        PTSUNNY   64  55  72 N6        29.92S
6HR MIN TEMP:  64; 6HR MAX TEMP:  67;

PORT HOPE        N/A     60  56  86 N5        29.92R
6HR MIN TEMP:  59; 6HR MAX TEMP:  63;

PORT HURON     CLOUDY    59  57  94 N5        29.93S
TRI CITIES     CLOUDY    68  55  63 W5        29.92S
6HR MIN TEMP:  65; 6HR MAX TEMP:  70;

MIDLAND        PTSUNNY   67  55  66 NW9       29.92R
TROY           PTSUNNY   67  57  70 NW8       29.94R
SAGINAW HB     CLOUDY    64  55  72 S3        29.92S
$$
MIZ043>046-050>051-056>058-064>065-071>073-077>080-020100-
SOUTHWEST LOWER MICHIGAN

CITY           SKY/WX    TMP DP  RH WIND       PRES   REMARKS
BATTLE CREEK   PTSUNNY   65  53  65 NW9       29.94S
6HR MIN TEMP:  65; 6HR MAX TEMP:  72;

BENTON HARBOR  CLOUDY    57  51  80 CALM      29.98R
6HR MIN TEMP:  57; 6HR MAX TEMP:  62;

BIG RAPIDS     CLOUDY    61  52  71 N6        29.95R
6HR MIN TEMP:  61; 6HR MAX TEMP:  64;

COLDWATER      PTSUNNY   65  52  63 NW7       29.93R
6HR MIN TEMP:  65; 6HR MAX TEMP:  71;

FREMONT        PTSUNNY   58  53  82 N7        29.96S
HOLLAND        CLOUDY    60  52  74 N5        29.96S
6HR MIN TEMP:  59; 6HR MAX TEMP:  64;

GRAND RAPIDS   PTSUNNY   63  51  65 NW7       29.94S
6HR MIN TEMP:  63; 6HR MAX TEMP:  70;

IONIA          FAIR      65  52  62 NW6       29.92S
KALAMAZOO      PTSUNNY   62  52  69 NW9       29.95S
6HR MIN TEMP:  62; 6HR MAX TEMP:  71;

LUDINGTON      PTSUNNY   60  53  77 N6        29.97S
6HR MIN TEMP:  56; 6HR MAX TEMP:  60;

MARSHALL       PTSUNNY   66  53  63 NW3       29.93R
MOUNT PLEASANT PTSUNNY   64  54  69 N6        29.93R
6HR MIN TEMP:  64; 6HR MAX TEMP:  68;

MUSKEGON       PTSUNNY   62  52  69 N8        29.96S
6HR MIN TEMP:  60; 6HR MAX TEMP:  65;

SOUTH HAVEN    PTSUNNY   57  52  82 N6        29.97R
$$
MIZ016>042-020100-
NORTHERN LOWER MICHIGAN

CITY           SKY/WX    TMP DP  RH WIND       PRES   REMARKS
ALPENA         CLOUDY    62  50  64 NW7       29.94S
6HR MIN TEMP:  60; 6HR MAX TEMP:  65;

BEAVER ISLAND  PTSUNNY   60  46  61 N7        29.98S
6HR MIN TEMP:  60; 6HR MAX TEMP:  65;

BELLAIRE       PTSUNNY   62  51  66 N3        29.96S
6HR MIN TEMP:  57; 6HR MAX TEMP:  63;

CADILLAC       CLOUDY    58  52  81 N5        29.96S
CHARLEVOIX     PTSUNNY   60  52  75 NW6       30.00S
FRANKFORT      MOSUNNY   63  47  56 CALM      29.98R
GAYLORD        CLOUDY    59  52  77 VRB5      29.96S
6HR MIN TEMP:  56; 6HR MAX TEMP:  60;

GRAYLING       CLOUDY    58  53  82 NW8       29.97R
6HR MIN TEMP:  58; 6HR MAX TEMP:  61;

HARBOR SPRINGS MOSUNNY   60  47  62 NW6       29.96S
HOUGHTON LAKE  CLOUDY    58  52  80 N6        29.97R
6HR MIN TEMP:  58; 6HR MAX TEMP:  61;

MANISTEE       MOSUNNY  N/A N/A N/A N7        29.98S
OSCODA         PTSUNNY   64  55  73 NW7       29.92R
PELLSTON       PTSUNNY   62  48  60 NW10      29.96R
6HR MIN TEMP:  59; 6HR MAX TEMP:  66;

ROGERS CITY    PTSUNNY   62  52  70 NW10      29.96R
TRAVERSE CITY  PTSUNNY   61  50  67 N7        29.95F
6HR MIN TEMP:  56; 6HR MAX TEMP:  61;

$$
MIZ007>008-015-020100-
EASTERN UPPER MICHIGAN

CITY           SKY/WX    TMP DP  RH WIND       PRES   REMARKS
KINROSS        SUNNY     55  45  67 NW17      29.96S
6HR MIN TEMP:  55; 6HR MAX TEMP:  63;

MACKINAC ISLAN MOSUNNY   61  49  63 N7        29.95S
6HR MIN TEMP:  60; 6HR MAX TEMP:  65; 6HR PCP:  0.09;

NEWBERRY       MOSUNNY   56  44  64 N5        29.99R
S. S. MARIE    SUNNY     55  43  63 NW15      29.96R
6HR MIN TEMP:  55; 6HR MAX TEMP:  63;

MUNISING         N/A     55  46  71 NE3       30.02R
6HR MIN TEMP:  53; 6HR MAX TEMP:  56;

$$
MIZ004>006-011>014-085-020100-
CENTRAL UPPER MICHIGAN

CITY           SKY/WX    TMP DP  RH WIND       PRES   REMARKS
MANISTIQUE     MOSUNNY   59  43  55 NW9       29.99S
6HR MIN TEMP:  58; 6HR MAX TEMP:  65;

ESCANABA       MOSUNNY   63  39  42 N6G17     29.99S
MENOMINEE      SUNNY     64  45  48 E12       29.98S
6HR MIN TEMP:  63; 6HR MAX TEMP:  64;

SAWYER-GWINN   SUNNY     61  39  44 N7        30.02S
$$
MIZ001>003-009>011-084-020100-
WESTERN UPPER MICHIGAN

CITY           SKY/WX    TMP DP  RH WIND       PRES   REMARKS
IRON MOUNTAIN  SUNNY     67  43  41 NE7       29.98S
6HR MIN TEMP:  66; 6HR MAX TEMP:  71;

HOUGHTON       MOSUNNY   61  43  51 NW8       30.02R
6HR MIN TEMP:  61; 6HR MAX TEMP:  67;

COPPER HARBOR    N/A     55  47  74 N3        30.00F
6HR MIN TEMP:  53; 6HR MAX TEMP:  59;

IRONWOOD       SUNNY     64  46  52 NE3       29.99S
6HR MIN TEMP:  64; 6HR MAX TEMP:  66;

$$

ABBREVIATIONS USED IN REMARKS
   TC - TEMPERATURE IN CELSIUS
  WCI - WIND CHILL INDEX
   HX - HEAT INDEX
  VSB - VISIBILITY



USA.gov is the U.S. government's official web portal to all federal, state and local government web resources and services.